Time,TemperatureF,DewpointF,PressureIn,WindDirection,WindDirectionDegrees,WindSpeedMPH,WindSpeedGustMPH,Humidity,HourlyPrecipIn,Conditions,Clouds,dailyrainin,SoftwareType,DateUTC
2013-06-09 00:00:00,69.3,67.5,30.22,SW,229,0.0,0.0,94,0.00,,BKN250,0.00,VWS V14.01,2013-06-09 04:00:00,
2013-06-09 00:01:00,69.3,67.5,30.22,SW,229,0.0,0.0,94,0.00,,BKN250,0.00,VWS V14.01,2013-06-09 04:01:00,
2013-06-09 00:02:00,69.3,67.5,30.22,SW,229,0.0,0.0,94,0.00,,BKN250,0.00,VWS V14.01,2013-06-09 04:02:00,
2013-06-09 00:04:00,69.3,67.5,30.22,SW,229,0.0,0.0,94,0.00,,BKN250,0.00,VWS V14.01,2013-06-09 04:04:00,
2013-06-09 00:05:00,69.3,67.8,30.22,SW,229,0.0,0.0,95,0.00,,BKN250,0.00,VWS V14.01,2013-06-09 04:05:00,
2013-06-09 00:10:00,69.3,67.8,30.22,SW,229,0.0,0.0,95,0.00,,BKN250,0.00,VWS V14.01,2013-06-09 04:10:00,
2013-06-09 00:16:00,69.3,67.5,30.21,SW,229,0.0,0.0,94,0.00,,BKN250,0.00,VWS V14.01,2013-06-09 04:16:00,
2013-06-09 00:22:00,69.3,67.5,30.21,SW,229,0.0,0.0,94,0.00,,BKN250,0.00,VWS V14.01,2013-06-09 04:22:00,
2013-06-09 00:28:00,69.3,67.8,30.21,SW,229,0.0,0.0,95,0.00,,BKN250,0.00,VWS V14.01,2013-06-09 04:28:00,
2013-06-09 00:34:00,69.1,67.6,30.21,SW,229,0.0,0.0,95,0.00,,BKN250,0.00,VWS V14.01,2013-06-09 04:34:00,
2013-06-09 00:40:00,69.1,67.6,30.21,SW,229,0.0,0.0,95,0.00,,BKN250,0.00,VWS V14.01,2013-06-09 04:40:00,
2013-06-09 00:48:00,69.1,67.6,30.21,SW,229,0.0,0.0,95,0.00,,BKN250,0.00,VWS V14.01,2013-06-09 04:48:00,
2013-06-09 00:54:00,69.1,67.6,30.21,SW,229,0.0,0.0,95,0.00,,BKN250,0.00,VWS V14.01,2013-06-09 04:54:00,
2013-06-09 01:00:00,68.9,67.4,30.21,SW,229,0.0,0.0,95,0.00,,BKN250,0.00,VWS V14.01,2013-06-09 05:00:00,
2013-06-09 01:06:00,68.9,67.7,30.21,SW,229,0.0,0.0,96,0.00,,BKN250,0.00,VWS V14.01,2013-06-09 05:06:00,
2013-06-09 01:12:00,68.8,67.3,30.21,SW,229,0.0,0.0,95,0.00,,BKN250,0.00,VWS V14.01,2013-06-09 05:12:00,
2013-06-09 01:18:00,68.8,67.3,30.21,SW,229,0.0,0.0,95,0.00,,BKN250,0.00,VWS V14.01,2013-06-09 05:18:00,
2013-06-09 01:24:00,68.6,67.1,30.21,SW,229,0.0,0.0,95,0.00,,BKN250,0.00,VWS V14.01,2013-06-09 05:24:00,
2013-06-09 01:30:00,68.6,67.4,30.21,SW,229,0.0,0.0,96,0.00,,BKN250,0.00,VWS V14.01,2013-06-09 05:30:00,
2013-06-09 01:36:00,68.4,67.2,30.21,SW,229,0.0,0.0,96,0.00,,BKN250,0.00,VWS V14.01,2013-06-09 05:36:00,
2013-06-09 01:42:00,68.4,67.2,30.21,SW,229,0.0,0.0,96,0.00,,BKN250,0.00,VWS V14.01,2013-06-09 05:42:00,
2013-06-09 01:48:00,68.4,67.2,30.21,SW,229,0.0,0.0,96,0.00,,BKN250,0.00,VWS V14.01,2013-06-09 05:48:00,
2013-06-09 01:54:00,68.3,67.1,30.21,SW,229,0.0,0.0,96,0.00,,BKN250,0.00,VWS V14.01,2013-06-09 05:54:00,
2013-06-09 02:00:00,68.3,67.1,30.21,SW,229,0.0,0.0,96,0.00,,BKN250,0.00,VWS V14.01,2013-06-09 06:00:00,
2013-06-09 02:06:00,68.1,67.2,30.21,SW,229,0.0,0.0,97,0.00,,BKN250,0.00,VWS V14.01,2013-06-09 06:06:00,
2013-06-09 02:12:00,68.1,67.2,30.21,SW,229,0.0,0.0,97,0.00,,BKN250,0.00,VWS V14.01,2013-06-09 06:12:00,
2013-06-09 02:18:00,68.1,67.2,30.21,SW,229,0.0,0.0,97,0.00,,BKN250,0.00,VWS V14.01,2013-06-09 06:18:00,
2013-06-09 02:24:00,67.9,67.0,30.21,SW,229,0.0,0.0,97,0.00,,BKN250,0.00,VWS V14.01,2013-06-09 06:24:00,
2013-06-09 02:30:00,67.8,66.9,30.21,SW,229,0.0,0.0,97,0.00,,BKN250,0.00,VWS V14.01,2013-06-09 06:30:00,
2013-06-09 02:35:00,67.8,66.9,30.21,SW,229,0.0,0.0,97,0.00,,BKN250,0.00,VWS V14.01,2013-06-09 06:35:00,
2013-06-09 02:40:00,67.8,66.9,30.21,SW,229,0.0,0.0,97,0.00,,BKN250,0.00,VWS V14.01,2013-06-09 06:40:00,
2013-06-09 02:46:00,67.8,66.9,30.21,SW,229,0.0,0.0,97,0.00,,BKN250,0.00,VWS V14.01,2013-06-09 06:46:00,
2013-06-09 02:52:00,67.8,66.9,30.21,SW,229,0.0,0.0,97,0.00,,BKN250,0.00,VWS V14.01,2013-06-09 06:52:00,
2013-06-09 02:58:00,67.6,66.7,30.21,SW,229,0.0,0.0,97,0.00,,BKN250,0.00,VWS V14.01,2013-06-09 06:58:00,
2013-06-09 03:04:00,67.6,66.7,30.21,SW,229,0.0,0.0,97,0.00,,BKN250,0.00,VWS V14.01,2013-06-09 07:04:00,
2013-06-09 03:10:00,67.6,66.7,30.21,SW,229,0.0,0.0,97,0.00,,BKN250,0.00,VWS V14.01,2013-06-09 07:10:00,
2013-06-09 03:16:00,67.6,66.7,30.21,SW,229,0.0,0.0,97,0.00,,BKN250,0.00,VWS V14.01,2013-06-09 07:16:00,
2013-06-09 03:22:00,67.6,66.7,30.21,SW,229,0.0,0.0,97,0.00,,BKN250,0.00,VWS V14.01,2013-06-09 07:22:00,
2013-06-09 03:28:00,67.6,66.7,30.21,SW,229,0.0,0.0,97,0.00,,BKN250,0.00,VWS V14.01,2013-06-09 07:28:00,
2013-06-09 03:34:00,67.6,66.7,30.21,SW,229,0.0,0.0,97,0.00,,BKN250,0.00,VWS V14.01,2013-06-09 07:34:00,
2013-06-09 03:40:00,67.6,66.7,30.21,SW,229,0.0,0.0,97,0.00,,BKN250,0.00,VWS V14.01,2013-06-09 07:40:00,
2013-06-09 03:46:00,67.6,66.7,30.21,SW,229,0.0,0.0,97,0.00,,BKN250,0.00,VWS V14.01,2013-06-09 07:46:00,
2013-06-09 03:52:00,67.6,66.7,30.21,SW,229,0.0,0.0,97,0.00,,BKN250,0.00,VWS V14.01,2013-06-09 07:52:00,
2013-06-09 03:58:00,67.4,66.5,30.21,SW,229,0.0,0.0,97,0.00,,BKN250,0.00,VWS V14.01,2013-06-09 07:58:00,
2013-06-09 04:04:00,67.6,67.0,30.21,SW,229,0.0,0.0,98,0.00,,BKN250,0.00,VWS V14.01,2013-06-09 08:04:00,
2013-06-09 04:10:00,67.6,67.0,30.21,SW,229,0.0,0.0,98,0.00,,BKN250,0.00,VWS V14.01,2013-06-09 08:10:00,
2013-06-09 04:16:00,67.6,67.0,30.21,SW,229,0.0,0.0,98,0.00,,BKN250,0.00,VWS V14.01,2013-06-09 08:16:00,
2013-06-09 04:22:00,67.6,67.0,30.21,SW,229,0.0,0.0,98,0.00,,BKN250,0.00,VWS V14.01,2013-06-09 08:22:00,
2013-06-09 04:29:00,67.6,67.0,30.21,SW,229,0.0,0.0,98,0.00,,BKN250,0.00,VWS V14.01,2013-06-09 08:29:00,
2013-06-09 04:35:00,67.4,66.8,30.21,SW,229,0.0,0.0,98,0.00,,BKN250,0.00,VWS V14.01,2013-06-09 08:35:00,
2013-06-09 04:40:00,67.6,67.0,30.21,SW,229,0.0,0.0,98,0.00,,BKN250,0.00,VWS V14.01,2013-06-09 08:40:00,
2013-06-09 04:45:00,67.6,67.3,30.21,SW,229,0.0,0.0,99,0.00,,BKN250,0.00,VWS V14.01,2013-06-09 08:45:00,
2013-06-09 04:51:00,67.8,67.2,30.21,SW,229,0.0,0.0,98,0.00,,BKN250,0.00,VWS V14.01,2013-06-09 08:51:00,
2013-06-09 04:57:00,67.6,67.0,30.21,SW,229,0.0,0.0,98,0.00,,BKN250,0.00,VWS V14.01,2013-06-09 08:57:00,
2013-06-09 05:04:00,67.6,67.0,30.23,SW,229,0.0,0.0,98,0.00,,,0.00,VWS V14.01,2013-06-09 09:04:00,
2013-06-09 05:10:00,67.4,67.1,30.23,SW,229,0.0,0.0,99,0.00,,,0.00,VWS V14.01,2013-06-09 09:10:00,
2013-06-09 05:16:00,67.4,67.1,30.23,SW,229,0.0,0.0,99,0.00,,,0.00,VWS V14.01,2013-06-09 09:16:00,
2013-06-09 05:22:00,67.4,67.1,30.23,SW,229,0.0,0.0,99,0.00,,,0.00,VWS V14.01,2013-06-09 09:22:00,
2013-06-09 05:28:00,67.8,67.8,30.23,SW,229,0.0,0.0,100,0.00,,,0.00,VWS V14.01,2013-06-09 09:28:00,
2013-06-09 05:34:00,67.8,67.5,30.23,SW,229,0.0,0.0,99,0.00,,,0.00,VWS V14.01,2013-06-09 09:34:00,
2013-06-09 05:40:00,67.8,67.5,30.23,SW,229,0.0,0.0,99,0.00,,,0.00,VWS V14.01,2013-06-09 09:40:00,
2013-06-09 05:48:00,67.8,67.8,30.24,SW,229,0.0,0.0,100,0.00,,,0.00,VWS V14.01,2013-06-09 09:48:00,
2013-06-09 05:54:00,67.8,67.8,30.24,SW,229,0.0,0.0,100,0.00,,,0.00,VWS V14.01,2013-06-09 09:54:00,
2013-06-09 06:00:00,67.8,67.8,30.24,SW,229,0.0,0.0,100,0.00,,,0.00,VWS V14.01,2013-06-09 10:00:00,
2013-06-09 06:06:00,67.8,67.8,30.24,SW,229,0.0,0.0,100,0.00,,BKN250,0.00,VWS V14.01,2013-06-09 10:06:00,
2013-06-09 06:12:00,67.6,67.6,30.24,SW,229,0.0,0.0,100,0.00,,BKN250,0.00,VWS V14.01,2013-06-09 10:12:00,
2013-06-09 06:18:00,67.6,67.6,30.25,SW,229,0.0,0.0,100,0.00,,BKN250,0.00,VWS V14.01,2013-06-09 10:18:00,
2013-06-09 06:24:00,67.6,67.6,30.25,SW,229,0.0,0.0,100,0.00,,BKN250,0.00,VWS V14.01,2013-06-09 10:24:00,
2013-06-09 06:30:00,67.6,67.6,30.25,SW,229,0.0,0.0,100,0.00,,BKN250,0.00,VWS V14.01,2013-06-09 10:30:00,
2013-06-09 06:38:00,67.8,67.8,30.25,SW,229,0.0,0.0,100,0.00,,BKN250,0.00,VWS V14.01,2013-06-09 10:38:00,
2013-06-09 06:44:00,67.8,67.8,30.25,SW,229,0.0,0.0,100,0.00,,BKN250,0.00,VWS V14.01,2013-06-09 10:44:00,
2013-06-09 06:50:00,67.9,67.9,30.25,SW,229,0.0,0.0,100,0.00,,BKN250,0.00,VWS V14.01,2013-06-09 10:50:00,
2013-06-09 06:56:00,68.1,68.1,30.25,SW,229,0.0,0.0,100,0.00,,BKN250,0.00,VWS V14.01,2013-06-09 10:56:00,
2013-06-09 07:02:00,68.3,68.3,30.25,SW,229,0.0,0.0,100,0.00,,BKN250,0.00,VWS V14.01,2013-06-09 11:02:00,
2013-06-09 07:08:00,68.4,68.4,30.25,SW,229,0.0,0.0,100,0.00,,BKN250,0.00,VWS V14.01,2013-06-09 11:08:00,
2013-06-09 07:14:00,68.8,68.8,30.25,SW,229,0.0,0.0,100,0.00,,BKN250,0.00,VWS V14.01,2013-06-09 11:14:00,
2013-06-09 07:20:00,68.9,68.9,30.25,SW,229,0.0,0.0,100,0.00,,BKN250,0.00,VWS V14.01,2013-06-09 11:20:00,
2013-06-09 07:26:00,69.3,69.3,30.25,SW,229,0.0,0.0,100,0.00,,BKN250,0.00,VWS V14.01,2013-06-09 11:26:00,
2013-06-09 07:32:00,69.6,69.6,30.26,SW,229,0.0,0.0,100,0.00,,BKN250,0.00,VWS V14.01,2013-06-09 11:32:00,
2013-06-09 07:38:00,69.9,69.9,30.26,SW,229,0.0,0.0,100,0.00,,BKN250,0.00,VWS V14.01,2013-06-09 11:38:00,
2013-06-09 07:44:00,70.3,70.3,30.26,SW,229,0.0,0.0,100,0.00,,BKN250,0.00,VWS V14.01,2013-06-09 11:44:00,
2013-06-09 07:50:00,70.4,70.4,30.26,SW,229,0.0,0.0,100,0.00,,BKN250,0.00,VWS V14.01,2013-06-09 11:50:00,
2013-06-09 07:56:00,70.6,70.6,30.26,SW,229,0.0,0.0,100,0.00,,BKN250,0.00,VWS V14.01,2013-06-09 11:56:00,
2013-06-09 08:03:00,70.8,70.8,30.27,SW,229,0.0,0.0,100,0.00,,BKN250,0.00,VWS V14.01,2013-06-09 12:03:00,
2013-06-09 08:09:00,70.9,70.9,30.27,SW,229,0.0,0.0,100,0.00,,BKN250,0.00,VWS V14.01,2013-06-09 12:09:00,
2013-06-09 08:15:00,71.1,71.1,30.27,SW,229,0.0,0.0,100,0.00,,BKN250,0.00,VWS V14.01,2013-06-09 12:15:00,
2013-06-09 08:20:00,71.5,71.5,30.27,SW,229,0.0,0.0,100,0.00,,BKN250,0.00,VWS V14.01,2013-06-09 12:20:00,
2013-06-09 08:25:00,71.6,71.6,30.27,SW,229,0.0,0.0,100,0.00,,BKN250,0.00,VWS V14.01,2013-06-09 12:25:00,
2013-06-09 08:31:00,72.0,71.7,30.27,SW,229,0.0,0.0,99,0.00,,BKN250,0.00,VWS V14.01,2013-06-09 12:31:00,
2013-06-09 08:37:00,72.3,71.7,30.27,SW,229,0.0,1.0,98,0.00,,BKN250,0.00,VWS V14.01,2013-06-09 12:37:00,
2013-06-09 08:43:00,72.7,72.1,30.27,SW,229,0.0,0.0,98,0.00,,BKN250,0.00,VWS V14.01,2013-06-09 12:43:00,
2013-06-09 08:50:00,73.0,72.1,30.27,SW,229,0.0,0.0,97,0.00,,BKN250,0.00,VWS V14.01,2013-06-09 12:50:00,
2013-06-09 08:56:00,73.2,72.0,30.27,SW,229,0.0,0.0,96,0.00,,BKN250,0.00,VWS V14.01,2013-06-09 12:56:00,
2013-06-09 09:02:00,73.3,71.8,30.28,SW,229,0.0,0.0,95,0.00,,BKN250,0.00,VWS V14.01,2013-06-09 13:02:00,
2013-06-09 09:08:00,73.5,71.4,30.28,SW,229,0.0,0.0,93,0.00,,BKN250,0.00,VWS V14.01,2013-06-09 13:08:00,
2013-06-09 09:14:00,73.7,71.2,30.28,SW,229,0.0,0.0,92,0.00,,BKN250,0.00,VWS V14.01,2013-06-09 13:14:00,
2013-06-09 09:20:00,74.0,71.5,30.28,SW,229,0.0,0.0,92,0.00,,BKN250,0.00,VWS V14.01,2013-06-09 13:20:00,
2013-06-09 09:26:00,74.4,71.6,30.28,SW,229,0.0,0.0,91,0.00,,BKN250,0.00,VWS V14.01,2013-06-09 13:26:00,
2013-06-09 09:32:00,74.7,71.6,30.28,SW,229,0.0,0.0,90,0.00,,BKN250,0.00,VWS V14.01,2013-06-09 13:32:00,
2013-06-09 09:38:00,75.1,71.0,30.28,SW,229,0.0,1.0,87,0.00,,BKN250,0.00,VWS V14.01,2013-06-09 13:38:00,
2013-06-09 09:44:00,75.4,70.6,30.28,SW,229,0.0,0.0,85,0.00,,BKN250,0.00,VWS V14.01,2013-06-09 13:44:00,
2013-06-09 09:50:00,76.0,71.2,30.28,SW,229,0.0,0.0,85,0.00,,BKN250,0.00,VWS V14.01,2013-06-09 13:50:00,
2013-06-09 09:56:00,76.3,70.8,30.28,WSW,245,0.0,1.0,83,0.00,,BKN250,0.00,VWS V14.01,2013-06-09 13:56:00,
2013-06-09 10:02:00,76.7,70.8,30.27,WSW,245,0.0,0.0,82,0.00,,BKN250,0.00,VWS V14.01,2013-06-09 14:02:00,
2013-06-09 10:08:00,77.2,71.3,30.27,WSW,245,0.0,0.0,82,0.00,,BKN250,0.00,VWS V14.01,2013-06-09 14:08:00,
2013-06-09 10:14:00,77.6,70.6,30.27,WSW,245,0.0,0.0,79,0.00,,BKN250,0.00,VWS V14.01,2013-06-09 14:14:00,
2013-06-09 10:20:00,78.1,71.1,30.27,WSW,245,0.0,1.0,79,0.00,,BKN250,0.00,VWS V14.01,2013-06-09 14:20:00,
2013-06-09 10:26:00,78.6,71.2,30.27,WSW,245,0.0,0.0,78,0.00,,BKN250,0.00,VWS V14.01,2013-06-09 14:26:00,
2013-06-09 10:33:00,79.0,71.2,30.27,WSW,245,0.0,1.0,77,0.00,,BKN250,0.00,VWS V14.01,2013-06-09 14:33:00,
2013-06-09 10:39:00,79.4,71.2,30.27,WSW,245,0.0,1.0,76,0.00,,BKN250,0.00,VWS V14.01,2013-06-09 14:39:00,
2013-06-09 10:45:00,79.6,70.2,30.27,WSW,245,0.0,0.0,73,0.00,,BKN250,0.00,VWS V14.01,2013-06-09 14:45:00,
2013-06-09 10:50:00,79.9,70.5,30.27,WSW,245,0.0,0.0,73,0.00,,BKN250,0.00,VWS V14.01,2013-06-09 14:50:00,
2013-06-09 10:55:00,79.9,71.3,30.27,WSW,245,0.0,0.0,75,0.00,,BKN250,0.00,VWS V14.01,2013-06-09 14:55:00,
2013-06-09 11:01:00,80.5,71.1,30.27,WSW,245,0.0,1.0,73,0.00,,BKN250,0.00,VWS V14.01,2013-06-09 15:01:00,
2013-06-09 11:07:00,81.2,71.7,30.27,WSW,245,0.0,1.0,73,0.00,,BKN250,0.00,VWS V14.01,2013-06-09 15:07:00,
2013-06-09 11:13:00,81.8,70.6,30.27,WSW,245,0.0,0.0,69,0.00,,BKN250,0.00,VWS V14.01,2013-06-09 15:13:00,
2013-06-09 11:19:00,82.4,70.8,30.26,WSW,245,0.0,0.0,68,0.00,,BKN250,0.00,VWS V14.01,2013-06-09 15:19:00,
2013-06-09 11:26:00,82.4,70.8,30.26,WSW,245,0.0,0.0,68,0.00,,BKN250,0.00,VWS V14.01,2013-06-09 15:26:00,
2013-06-09 11:32:00,82.2,70.2,30.27,WSW,245,0.0,0.0,67,0.00,,BKN250,0.00,VWS V14.01,2013-06-09 15:32:00,
2013-06-09 11:38:00,82.2,71.4,30.27,WSW,245,0.0,1.0,70,0.00,,BKN250,0.00,VWS V14.01,2013-06-09 15:38:00,
2013-06-09 11:44:00,82.6,70.5,30.27,WSW,245,0.0,0.0,67,0.00,,BKN250,0.00,VWS V14.01,2013-06-09 15:44:00,
2013-06-09 11:50:00,82.4,71.2,30.26,WSW,245,0.0,0.0,69,0.00,,BKN250,0.00,VWS V14.01,2013-06-09 15:50:00,
2013-06-09 11:56:00,82.6,71.4,30.26,WSW,245,0.0,1.0,69,0.00,,BKN250,0.00,VWS V14.01,2013-06-09 15:56:00,
2013-06-09 12:02:00,83.0,70.0,30.26,WSW,245,0.0,0.0,65,0.00,,BKN250,0.00,VWS V14.01,2013-06-09 16:02:00,
2013-06-09 12:08:00,83.4,70.4,30.26,WSW,245,0.0,1.0,65,0.00,,BKN250,0.00,VWS V14.01,2013-06-09 16:08:00,
2013-06-09 12:14:00,83.6,71.5,30.26,WSW,245,0.0,0.0,67,0.00,,BKN250,0.00,VWS V14.01,2013-06-09 16:14:00,
2013-06-09 12:20:00,84.0,70.5,30.27,WSW,245,0.0,1.0,64,0.00,,BKN250,0.00,VWS V14.01,2013-06-09 16:20:00,
2013-06-09 12:26:00,84.7,72.1,30.27,WSW,245,0.0,1.0,66,0.00,,BKN250,0.00,VWS V14.01,2013-06-09 16:26:00,
2013-06-09 12:32:00,85.3,69.8,30.26,WSW,254,0.0,0.0,60,0.00,,BKN250,0.00,VWS V14.01,2013-06-09 16:32:00,
2013-06-09 12:38:00,85.3,69.8,30.26,WSW,254,0.0,1.0,60,0.00,,BKN250,0.00,VWS V14.01,2013-06-09 16:38:00,
2013-06-09 12:44:00,85.1,70.6,30.26,WSW,254,0.0,1.0,62,0.00,,BKN250,0.00,VWS V14.01,2013-06-09 16:44:00,
2013-06-09 12:50:00,84.9,70.4,30.26,WNW,293,1.0,1.0,62,0.00,,BKN250,0.00,VWS V14.01,2013-06-09 16:50:00,
2013-06-09 12:56:00,85.1,69.2,30.26,WNW,295,0.0,1.0,59,0.00,,BKN250,0.00,VWS V14.01,2013-06-09 16:56:00,
2013-06-09 13:03:00,84.9,70.0,30.25,WNW,295,0.0,1.0,61,0.00,,BKN250,0.00,VWS V14.01,2013-06-09 17:03:00,
2013-06-09 13:09:00,85.1,70.2,30.25,NW,309,0.0,1.0,61,0.00,,BKN250,0.00,VWS V14.01,2013-06-09 17:09:00,
2013-06-09 13:15:00,86.1,71.6,30.25,NW,309,0.0,0.0,62,0.00,,BKN250,0.00,VWS V14.01,2013-06-09 17:15:00,
2013-06-09 13:20:00,86.3,71.3,30.25,NW,309,0.0,1.0,61,0.00,,BKN250,0.00,VWS V14.01,2013-06-09 17:20:00,
2013-06-09 13:25:00,86.1,70.1,30.25,NW,309,0.0,0.0,59,0.00,,BKN250,0.00,VWS V14.01,2013-06-09 17:25:00,
2013-06-09 13:33:00,85.5,70.0,30.24,NW,309,0.0,1.0,60,0.00,,BKN250,0.00,VWS V14.01,2013-06-09 17:33:00,
2013-06-09 13:39:00,84.9,71.4,30.24,NW,309,0.0,1.0,64,0.00,,BKN250,0.00,VWS V14.01,2013-06-09 17:39:00,
2013-06-09 13:45:00,84.9,70.4,30.24,NW,308,0.0,1.0,62,0.00,,BKN250,0.00,VWS V14.01,2013-06-09 17:45:00,
2013-06-09 13:50:00,85.3,70.3,30.24,NW,309,1.0,1.0,61,0.00,,BKN250,0.00,VWS V14.01,2013-06-09 17:50:00,
2013-06-09 13:56:00,85.5,69.1,30.24,NW,309,0.0,1.0,58,0.00,,BKN250,0.00,VWS V14.01,2013-06-09 17:56:00,
2013-06-09 14:02:00,85.5,70.0,30.23,NW,309,0.0,0.0,60,0.00,,BKN250,0.00,VWS V14.01,2013-06-09 18:02:00,
2013-06-09 14:08:00,85.3,71.3,30.23,NW,309,0.0,1.0,63,0.00,,BKN250,0.00,VWS V14.01,2013-06-09 18:08:00,
2013-06-09 14:14:00,85.1,71.1,30.23,NW,309,0.0,0.0,63,0.00,,BKN250,0.00,VWS V14.01,2013-06-09 18:14:00,
2013-06-09 14:20:00,85.3,71.3,30.22,NW,309,0.0,0.0,63,0.00,,BKN250,0.00,VWS V14.01,2013-06-09 18:20:00,
2013-06-09 14:28:00,85.9,71.4,30.22,NW,308,0.0,0.0,62,0.00,,BKN250,0.00,VWS V14.01,2013-06-09 18:28:00,
2013-06-09 14:34:00,86.1,72.0,30.22,NW,309,0.0,0.0,63,0.00,,BKN250,0.00,VWS V14.01,2013-06-09 18:34:00,
2013-06-09 14:40:00,86.3,69.8,30.22,NW,309,0.0,1.0,58,0.00,,BKN250,0.00,VWS V14.01,2013-06-09 18:40:00,
2013-06-09 14:46:00,86.1,69.6,30.22,NW,312,1.0,1.0,58,0.00,,BKN250,0.00,VWS V14.01,2013-06-09 18:46:00,
2013-06-09 14:52:00,85.9,71.4,30.22,NW,312,0.0,0.0,62,0.00,,BKN250,0.00,VWS V14.01,2013-06-09 18:52:00,
2013-06-09 14:58:00,85.9,71.4,30.22,NW,312,0.0,0.0,62,0.00,,BKN250,0.00,VWS V14.01,2013-06-09 18:58:00,
2013-06-09 15:04:00,85.9,71.8,30.21,NW,312,0.0,0.0,63,0.00,,BKN200,0.00,VWS V14.01,2013-06-09 19:04:00,
2013-06-09 15:10:00,85.7,71.2,30.21,NW,312,0.0,0.0,62,0.00,,BKN200,0.00,VWS V14.01,2013-06-09 19:10:00,
2013-06-09 15:16:00,85.5,72.4,30.21,NW,312,0.0,1.0,65,0.00,,BKN200,0.00,VWS V14.01,2013-06-09 19:16:00,
2013-06-09 15:22:00,85.7,73.0,30.21,NW,312,0.0,0.0,66,0.00,,BKN200,0.00,VWS V14.01,2013-06-09 19:22:00,
2013-06-09 15:28:00,85.9,70.9,30.21,NW,312,0.0,1.0,61,0.00,,BKN200,0.00,VWS V14.01,2013-06-09 19:28:00,
2013-06-09 15:34:00,86.3,71.8,30.21,NW,312,0.0,1.0,62,0.00,,BKN200,0.00,VWS V14.01,2013-06-09 19:34:00,
2013-06-09 15:40:00,86.5,71.9,30.21,NW,312,0.0,2.0,62,0.00,,BKN200,0.00,VWS V14.01,2013-06-09 19:40:00,
2013-06-09 15:46:00,87.0,70.9,30.20,North,354,1.0,2.0,59,0.00,,BKN200,0.00,VWS V14.01,2013-06-09 19:46:00,
2013-06-09 15:53:00,87.2,72.1,30.20,North,356,0.0,1.0,61,0.00,,BKN200,0.00,VWS V14.01,2013-06-09 19:53:00,
2013-06-09 15:59:00,87.0,71.4,30.20,North,356,0.0,1.0,60,0.00,,BKN200,0.00,VWS V14.01,2013-06-09 19:59:00,
2013-06-09 16:05:00,87.4,71.8,30.19,North,356,0.0,0.0,60,0.00,,OVC200,0.00,VWS V14.01,2013-06-09 20:05:00,
2013-06-09 16:10:00,87.6,72.5,30.19,North,356,0.0,1.0,61,0.00,,OVC200,0.00,VWS V14.01,2013-06-09 20:10:00,
2013-06-09 16:15:00,87.6,72.0,30.18,North,356,0.0,2.0,60,0.00,,OVC200,0.00,VWS V14.01,2013-06-09 20:15:00,
2013-06-09 16:21:00,87.6,73.0,30.18,North,356,0.0,0.0,62,0.00,,OVC200,0.00,VWS V14.01,2013-06-09 20:21:00,
2013-06-09 16:27:00,86.7,71.7,30.18,North,356,0.0,1.0,61,0.00,,OVC200,0.00,VWS V14.01,2013-06-09 20:27:00,
2013-06-09 16:34:00,86.5,71.5,30.18,NNE,30,0.0,0.0,61,0.00,,OVC200,0.00,VWS V14.01,2013-06-09 20:34:00,
2013-06-09 16:40:00,86.7,71.2,30.18,NNE,30,0.0,1.0,60,0.00,,OVC200,0.00,VWS V14.01,2013-06-09 20:40:00,
2013-06-09 16:46:00,86.5,71.5,30.18,NNE,30,0.0,1.0,61,0.00,,OVC200,0.00,VWS V14.01,2013-06-09 20:46:00,
2013-06-09 16:52:00,86.1,70.6,30.18,NNE,29,0.0,1.0,60,0.00,,OVC200,0.00,VWS V14.01,2013-06-09 20:52:00,
2013-06-09 16:58:00,85.9,71.4,30.18,NNE,25,0.0,2.0,62,0.00,,OVC200,0.00,VWS V14.01,2013-06-09 20:58:00,
2013-06-09 17:04:00,85.9,71.4,30.18,NNE,25,0.0,0.0,62,0.00,,BKN200,0.00,VWS V14.01,2013-06-09 21:04:00,
2013-06-09 17:10:00,86.1,71.6,30.18,NNE,25,0.0,0.0,62,0.00,,BKN200,0.00,VWS V14.01,2013-06-09 21:10:00,
2013-06-09 17:18:00,86.7,71.2,30.18,NNE,30,0.0,1.0,60,0.00,,BKN200,0.00,VWS V14.01,2013-06-09 21:18:00,
2013-06-09 17:24:00,87.0,70.9,30.18,NNE,30,0.0,1.0,59,0.00,,BKN200,0.00,VWS V14.01,2013-06-09 21:24:00,
2013-06-09 17:30:00,86.3,72.2,30.19,NNE,17,0.0,2.0,63,0.00,,BKN200,0.00,VWS V14.01,2013-06-09 21:30:00,
2013-06-09 17:36:00,85.7,71.2,30.19,NNE,17,0.0,2.0,62,0.00,,BKN200,0.00,VWS V14.01,2013-06-09 21:36:00,
2013-06-09 17:42:00,84.9,70.9,30.19,NNE,18,0.0,0.0,63,0.00,,BKN200,0.00,VWS V14.01,2013-06-09 21:42:00,
2013-06-09 17:48:00,84.5,71.0,30.19,NNE,17,0.0,1.0,64,0.00,,BKN200,0.00,VWS V14.01,2013-06-09 21:48:00,
2013-06-09 17:54:00,84.0,71.4,30.19,NNE,17,0.0,0.0,66,0.00,,BKN200,0.00,VWS V14.01,2013-06-09 21:54:00,
2013-06-09 18:00:00,83.6,71.5,30.19,NNE,17,0.0,0.0,67,0.00,,BKN200,0.00,VWS V14.01,2013-06-09 22:00:00,
2013-06-09 18:06:00,83.2,71.6,30.19,NNE,18,0.0,0.0,68,0.00,,BKN250,0.00,VWS V14.01,2013-06-09 22:06:00,
2013-06-09 18:12:00,83.2,72.0,30.19,NNE,17,0.0,0.0,69,0.00,,BKN250,0.00,VWS V14.01,2013-06-09 22:12:00,
2013-06-09 18:18:00,83.0,71.4,30.19,NNE,17,0.0,0.0,68,0.00,,BKN250,0.00,VWS V14.01,2013-06-09 22:18:00,
2013-06-09 18:24:00,82.6,69.2,30.19,North,0,0.0,2.0,64,0.00,,BKN250,0.00,VWS V14.01,2013-06-09 22:24:00,
2013-06-09 18:30:00,82.6,70.5,30.19,North,0,0.0,2.0,67,0.00,,BKN250,0.00,VWS V14.01,2013-06-09 22:30:00,
2013-06-09 18:37:00,82.4,70.3,30.19,North,0,0.0,1.0,67,0.00,,BKN250,0.00,VWS V14.01,2013-06-09 22:37:00,
2013-06-09 18:43:00,82.2,70.2,30.19,North,0,0.0,0.0,67,0.00,,BKN250,0.00,VWS V14.01,2013-06-09 22:43:00,
2013-06-09 18:49:00,82.2,70.6,30.20,North,0,0.0,0.0,68,0.00,,BKN250,0.00,VWS V14.01,2013-06-09 22:49:00,
2013-06-09 18:55:00,82.0,70.4,30.20,North,0,0.0,0.0,68,0.00,,BKN250,0.00,VWS V14.01,2013-06-09 22:55:00,
2013-06-09 19:00:00,81.8,70.6,30.20,North,0,0.0,0.0,69,0.00,,BKN250,0.00,VWS V14.01,2013-06-09 23:00:00,
2013-06-09 19:05:00,81.8,71.1,30.20,North,0,0.0,0.0,70,0.00,,OVC200,0.00,VWS V14.01,2013-06-09 23:05:00,
2013-06-09 19:11:00,81.6,71.3,30.20,North,0,0.0,0.0,71,0.00,,OVC200,0.00,VWS V14.01,2013-06-09 23:11:00,
2013-06-09 19:17:00,81.4,71.1,30.20,North,0,0.0,0.0,71,0.00,,OVC200,0.00,VWS V14.01,2013-06-09 23:17:00,
2013-06-09 19:23:00,81.2,71.7,30.20,North,0,0.0,0.0,73,0.00,,OVC200,0.00,VWS V14.01,2013-06-09 23:23:00,
2013-06-09 19:29:00,81.1,71.6,30.19,North,0,0.0,0.0,73,0.00,,OVC200,0.00,VWS V14.01,2013-06-09 23:29:00,
2013-06-09 19:36:00,80.9,71.4,30.19,North,0,0.0,0.0,73,0.00,,OVC200,0.00,VWS V14.01,2013-06-09 23:36:00,
2013-06-09 19:42:00,80.7,71.7,30.19,North,0,0.0,0.0,74,0.00,,OVC200,0.00,VWS V14.01,2013-06-09 23:42:00,
2013-06-09 19:48:00,80.5,71.5,30.19,North,0,0.0,0.0,74,0.00,,OVC200,0.00,VWS V14.01,2013-06-09 23:48:00,
2013-06-09 19:54:00,80.1,71.5,30.19,North,0,0.0,0.0,75,0.00,,OVC200,0.00,VWS V14.01,2013-06-09 23:54:00,
2013-06-09 20:00:00,80.1,71.9,30.20,North,0,0.0,0.0,76,0.00,,OVC200,0.00,VWS V14.01,2013-06-10 00:00:00,
2013-06-09 20:06:00,79.9,71.7,30.20,North,0,0.0,0.0,76,0.00,,OVC250,0.00,VWS V14.01,2013-06-10 00:06:00,
2013-06-09 20:12:00,79.6,72.1,30.20,North,0,0.0,0.0,78,0.00,,OVC250,0.00,VWS V14.01,2013-06-10 00:12:00,
2013-06-09 20:18:00,79.4,71.9,30.19,North,0,0.0,0.0,78,0.00,,OVC250,0.00,VWS V14.01,2013-06-10 00:18:00,
2013-06-09 20:24:00,79.2,72.1,30.19,North,0,0.0,0.0,79,0.00,,OVC250,0.00,VWS V14.01,2013-06-10 00:24:00,
2013-06-09 20:30:00,79.0,71.6,30.19,North,0,0.0,0.0,78,0.00,,OVC250,0.00,VWS V14.01,2013-06-10 00:30:00,
2013-06-09 20:36:00,78.6,71.6,30.19,North,0,0.0,0.0,79,0.00,,OVC250,0.00,VWS V14.01,2013-06-10 00:36:00,
2013-06-09 20:42:00,78.5,72.2,30.19,North,0,0.0,0.0,81,0.00,,OVC250,0.00,VWS V14.01,2013-06-10 00:42:00,
2013-06-09 20:48:00,78.1,72.2,30.20,North,0,0.0,0.0,82,0.00,,OVC250,0.00,VWS V14.01,2013-06-10 00:48:00,
2013-06-09 20:54:00,77.7,72.5,30.20,North,0,0.0,0.0,84,0.00,,OVC250,0.00,VWS V14.01,2013-06-10 00:54:00,
2013-06-09 21:00:00,77.6,72.0,30.22,North,2,0.0,1.0,83,0.00,,OVC250,0.00,VWS V14.01,2013-06-10 01:00:00,
2013-06-09 21:06:00,77.2,70.2,30.22,North,354,0.0,4.0,79,0.00,,-RA,0.00,VWS V14.01,2013-06-10 01:06:00,
2013-06-09 21:12:00,76.8,68.3,30.22,NW,307,0.0,5.0,75,0.00,,-RA,0.00,VWS V14.01,2013-06-10 01:12:00,
2013-06-09 21:19:00,76.5,68.8,30.23,NNW,335,0.0,5.0,77,0.00,,-RA,0.00,VWS V14.01,2013-06-10 01:19:00,
2013-06-09 21:25:00,76.0,69.4,30.23,NNW,341,0.0,4.0,80,0.00,,-RA,0.00,VWS V14.01,2013-06-10 01:25:00,
2013-06-09 21:30:00,75.4,69.9,30.23,NNW,341,0.0,4.0,83,0.00,,-RA,0.00,VWS V14.01,2013-06-10 01:30:00,
2013-06-09 21:35:00,74.7,69.9,30.23,NNW,327,0.0,3.0,85,0.00,,-RA,0.00,VWS V14.01,2013-06-10 01:35:00,
2013-06-09 21:40:00,74.2,70.4,30.23,North,350,0.0,3.0,88,0.00,,-RA,0.00,VWS V14.01,2013-06-10 01:40:00,
2013-06-09 21:46:00,73.5,70.7,30.24,North,350,0.0,1.0,91,0.00,,-RA,0.00,VWS V14.01,2013-06-10 01:46:00,
2013-06-09 21:52:00,73.0,70.9,30.24,North,350,0.0,0.0,93,0.00,,-RA,0.00,VWS V14.01,2013-06-10 01:52:00,
2013-06-09 21:58:00,72.7,70.9,30.24,North,350,0.0,0.0,94,0.00,,-RA,0.00,VWS V14.01,2013-06-10 01:58:00,
2013-06-09 22:04:00,72.5,71.0,30.23,North,350,0.0,0.0,95,0.00,,OVC100,0.00,VWS V14.01,2013-06-10 02:04:00,
2013-06-09 22:10:00,72.3,71.1,30.23,North,350,0.0,0.0,96,0.00,,OVC100,0.00,VWS V14.01,2013-06-10 02:10:00,
2013-06-09 22:18:00,72.1,70.9,30.23,North,350,0.0,0.0,96,0.00,,OVC100,0.00,VWS V14.01,2013-06-10 02:18:00,
2013-06-09 22:24:00,72.0,71.1,30.23,North,350,0.0,0.0,97,0.00,,OVC100,0.00,VWS V14.01,2013-06-10 02:24:00,
2013-06-09 22:30:00,71.8,70.9,30.23,North,350,0.0,0.0,97,0.00,,OVC100,0.00,VWS V14.01,2013-06-10 02:30:00,
2013-06-09 22:38:00,71.6,70.7,30.23,North,350,0.0,0.0,97,0.00,,OVC100,0.00,VWS V14.01,2013-06-10 02:38:00,
2013-06-09 22:44:00,71.6,70.7,30.23,North,350,0.0,0.0,97,0.00,,OVC100,0.00,VWS V14.01,2013-06-10 02:44:00,
2013-06-09 22:50:00,71.5,70.6,30.23,North,350,0.0,0.0,97,0.00,,OVC100,0.00,VWS V14.01,2013-06-10 02:50:00,
2013-06-09 22:56:00,71.5,70.9,30.23,North,350,0.0,0.0,98,0.00,,OVC100,0.00,VWS V14.01,2013-06-10 02:56:00,
2013-06-09 23:02:00,71.3,70.7,30.23,North,350,0.0,0.0,98,0.00,,OVC120,0.00,VWS V14.01,2013-06-10 03:02:00,
2013-06-09 23:08:00,71.3,70.7,30.23,North,350,0.0,0.0,98,0.00,,OVC120,0.00,VWS V14.01,2013-06-10 03:08:00,
2013-06-09 23:14:00,71.1,70.5,30.23,North,350,0.0,0.0,98,0.00,,OVC120,0.00,VWS V14.01,2013-06-10 03:14:00,
2013-06-09 23:20:00,71.1,70.5,30.23,North,350,0.0,0.0,98,0.00,,OVC120,0.00,VWS V14.01,2013-06-10 03:20:00,
2013-06-09 23:26:00,71.1,70.8,30.23,North,350,0.0,0.0,99,0.00,,OVC120,0.00,VWS V14.01,2013-06-10 03:26:00,
2013-06-09 23:32:00,71.1,70.8,30.22,North,350,0.0,0.0,99,0.00,,OVC120,0.00,VWS V14.01,2013-06-10 03:32:00,
2013-06-09 23:38:00,70.9,70.6,30.22,North,350,0.0,0.0,99,0.00,,OVC120,0.00,VWS V14.01,2013-06-10 03:38:00,
2013-06-09 23:44:00,70.9,70.6,30.22,North,350,0.0,0.0,99,0.00,,OVC120,0.00,VWS V14.01,2013-06-10 03:44:00,
2013-06-09 23:50:00,70.9,70.6,30.22,North,350,0.0,0.0,99,0.00,,OVC120,0.00,VWS V14.01,2013-06-10 03:50:00,
2013-06-09 23:56:00,70.8,70.5,30.22,North,350,0.0,0.0,99,0.00,,OVC120,0.00,VWS V14.01,2013-06-10 03:56:00,